Terminal Aerodrome Forecast
Issued by NWS Boston, MA

Home | Current Version | Previous Version | Text Only | Print | Product List | Glossary On
Versions: 1 2 3 4 5 6 7 8 9 10 11 12 13 14 15 16 17 18 19 20 21 22 23 24 25 26 27 28 29 30 31 32 33 34 35 36 37 38 39 40
000
FTUS41 KBOX 220735 AAA
TAFPVD
TAF AMD
KPVD 220735Z 2208/2306 02011KT 6SM BR OVC005
     FM220900 02010KT 3SM BR OVC008
     FM221900 02014KT 3SM -SHRA BR OVC015
     FM230000 01016KT 1SM SHRA BR OVC008=

USA.gov is the U.S. government's official web portal to all federal, state and local government web resources and services.